sat.trackr.live / text

‹ back to catalog

NETSAT-4

NORAD 46504 · 2020-068U

PAYLOAD ACTIVE UNKNOWN

§ Identity

Operator
Country
GER
Launch date
2020-09-28
Launch site
PLMSC
Launch vehicle
Mass (kg)
RCS (m²)

Purposes: tech_demo

External: N2YO · Heavens-Above · Gunter

§ Orbital elements

Epoch: 2026-09-14T11:42:09.184320Z

Period
93.10 min
Inclination
97.8604°
Eccentricity
0.0005079
Mean motion
15.46675373 rev/d
Perigee alt
423.0 km
Apogee alt
429.9 km
Semi-major
6,804.6 km
B*
3.3959e-4
RAAN
273.1038°
Arg perigee
22.4364°
Mean anomaly
337.7106°
Rev number
32,956

§ Raw data

NETSAT-41 46504U 20068U   26257.48760630  .00016875  00000+0  33959-3 0  99992 46504  97.8604 273.1038 0005079  22.4364 337.7106 15.46675373329560

JSON: /api/v1/satellites/46504 · /tle

For live sub-satellite position, see the globe view (requires WebGL).

§ Visibility from observer

Set your observer location to see the next 7 days of passes ≥ 10°. The values pass through the URL so the page stays shareable.

No JS? Fill the form by hand. The geolocation button needs JavaScript.

§ Radio — SatNOGS DB

ModeDescriptionDownlinkUplink
FSK AX.25 G3RUH Telemetry 435.600 MHz

1 transmitter · refreshed weekly from db.satnogs.org